Regional Weather Roundup
Issued by NWS

Home | Current Version | Previous Version | Graphics & Text | Print | Product List | Glossary On
Versions: 1 2 3 4 5 6 7 8 9 10 11 12 13 14 15 16 17 18 19 20 21 22 23 24 25 26 27 28 29 30 31 32 33 34 35 36 37 38 39 40 41 42 43 44 45 46 47 48 49 50
000
ASUS43 KDTX 281501
RWRMI
MICHIGAN HOURLY REGIONAL WEATHER ROUNDUP
NATIONAL WEATHER SERVICE DETROIT/PONTIAC MI
1100 AM EDT THU AUG 28 2014

NOTE: "FAIR" INDICATES FEW OR NO CLOUDS BELOW 12,000 FEET WITH NO
SIGNIFICANT WEATHER AND/OR OBSTRUCTION TO VISIBILITY.

MIZ047>049-052>055-059>063-066>070-074>076-081>083-281600-
SOUTHEAST LOWER MICHIGAN

CITY           SKY/WX    TMP DP  RH WIND       PRES   REMARKS
ADRIAN         PTSUNNY   67  55  65 E6        30.18S
ALMA           SUNNY     63  46  54 NE6       30.20S
ANN ARBOR      MOSUNNY   69  51  52 NE7       30.17R
BAD AXE        PTSUNNY   63  54  71 NE8       30.19S
CARO           MOSUNNY   63  53  69 NE3       30.19S
DETROIT CITY   MOSUNNY   68  50  52 N5        30.18S
DETROIT        MOSUNNY   68  53  58 N7        30.17S
FLINT          SUNNY     67  47  48 N5        30.19S
GROSSE ILE     SUNNY     66  55  68 NE7       30.16R
HILLSDALE      PTSUNNY   67  60  77 CALM      30.17F
HOWELL         SUNNY     62  50  63 N5        30.19R

CITY           SKY/WX    TMP DP  RH WIND       PRES   REMARKS
JACKSON        PTSUNNY   67  54  63 E5        30.18R
LAMBERTVILLE   MOSUNNY   68  55  64 E3        30.17S
LANSING        SUNNY     64  50  60 NE6       30.19S
LAPEER         FAIR      62  49  63 NE7       30.19S
MASON          PTSUNNY   64  53  69 N6        30.19S
MONROE         SUNNY     68  55  64 NE3       30.15S
MT. CLEMENS    MOSUNNY   64  47  52 N10       30.16F
PONTIAC        MOSUNNY   63  46  54 N7        30.18S
PORT HOPE        N/A     65  55  70 VRB3      30.18R
PORT HURON     PTSUNNY   63  55  77 NE6       30.18S
TRI CITIES     SUNNY     65  48  54 NE8       30.20S
TROY           SUNNY     64  48  54 NW7       30.19S
SAGINAW HB     MOSUNNY   63  52  67 N7        30.19S
$$
MIZ043>046-050>051-056>058-064>065-071>073-077>080-281600-
SOUTHWEST LOWER MICHIGAN

CITY           SKY/WX    TMP DP  RH WIND       PRES   REMARKS
BATTLE CREEK   CLOUDY    67  57  70 E6        30.18R
BENTON HARBOR  MOSUNNY   68  58  70 E9        30.14F
BIG RAPIDS     SUNNY     64  53  66 E7        30.19S
COLDWATER      CLOUDY    67  60  79 E5        30.16S
FREMONT        FAIR      65  44  45 E6        30.18F
HOLLAND        SUNNY     68  56  65 E14       30.17F
GRAND RAPIDS   MOSUNNY   66  54  65 E7        30.19S
IONIA          FAIR      63  50  63 E3        30.19S
KALAMAZOO      CLOUDY    66  58  75 E5        30.17S
LUDINGTON      SUNNY     65  50  58 E7        30.18S
MARSHALL       CLOUDY    65  58  76 E6        30.16F
MOUNT PLEASANT SUNNY     62  46  55 NE3       30.19S
MUSKEGON       MOSUNNY   67  49  52 E12       30.17F
SOUTH HAVEN    MOSUNNY   67  60  78 SE8       30.16S
$$
MIZ016>042-281600-
NORTHERN LOWER MICHIGAN

CITY           SKY/WX    TMP DP  RH WIND       PRES   REMARKS
ALPENA         MOSUNNY   62  51  67 N6        30.18F
BEAVER ISLAND  MOSUNNY   63  48  57 E5        30.20R
BELLAIRE       CLOUDY    62  48  60 CALM      30.19F
CADILLAC       SUNNY     61  47  58 CALM      30.19S
CHARLEVOIX     CLOUDY    62  53  72 CALM      30.22S
FRANKFORT      PTSUNNY   65  45  46 S5        30.18F
GAYLORD        SUNNY     61  46  57 VRB5      30.19S
GRAYLING       SUNNY     62  46  56 NE3       30.20S
HARBOR SPRINGS SUNNY     62  48  58 W5        30.19S
HOUGHTON LAKE  SUNNY     61  45  55 E7        30.20S
MANISTEE       MOSUNNY   63  48  59 SE6       30.19F
OSCODA         SUNNY     63  50  63 CALM      30.18S
PELLSTON       SUNNY     63  49  60 W3        30.19F
TRAVERSE CITY  PTSUNNY   64  47  53 CALM      30.18F
$$
MIZ007>008-015-281600-
EASTERN UPPER MICHIGAN

CITY           SKY/WX    TMP DP  RH WIND       PRES   REMARKS
KINROSS        SUNNY     61  50  67 N3        30.19S
MACKINAC ISLAN SUNNY     60  50  68 NE5       30.19F
NEWBERRY       SUNNY     60  46  60 N6        30.19S
S. S. MARIE    MOSUNNY   62  48  60 CALM      30.18F
$$
MIZ004>006-011>014-085-281600-
CENTRAL UPPER MICHIGAN

CITY           SKY/WX    TMP DP  RH WIND       PRES   REMARKS
MANISTIQUE     CLOUDY    61  47  60 SE3       30.19S
ESCANABA       CLOUDY    63  48  59 SE10      30.18S
MENOMINEE      CLOUDY    64  54  68 S9        30.16S
SAWYER-GWINN   MOSUNNY   61  48  63 SW6       30.18S
$$
MIZ001>003-009>011-084-281600-
WESTERN UPPER MICHIGAN

CITY           SKY/WX    TMP DP  RH WIND       PRES   REMARKS
IRON MOUNTAIN  MOSUNNY   64  53  67 VRB7      30.16S
HOUGHTON       MOSUNNY   60  52  74 SE7       30.16R
COPPER HARBOR    N/A     63  51  65 SW9       30.15R
$$

ABBREVIATIONS USED IN REMARKS
   TC - TEMPERATURE IN CELSIUS
  WCI - WIND CHILL INDEX
   HX - HEAT INDEX
  VSB - VISIBILITY



USA.gov is the U.S. government's official web portal to all federal, state and local government web resources and services.